Weather History for KMDW - July, 2013

Change the Weather History Date:

Saturday, July 27, 2013

  Actual Average Record
Temperature  
Mean Temperature 63 °F 76 °F  
Max Temperature 68 °F 84 °F 100 °F (1955)
Min Temperature 57 °F 68 °F 51 °F (1937)
Degree Days  
Heating Degree Days 2 0  
Month to date heating degree days 2 0  
Since 1 June heating degree days 38 31  
Since 1 July heating degree days 2 0  
Cooling Degree Days 0 11  
Month to date cooling degree days 301 295  
Year to date cooling degree days 588 579  
Since 1 June cooling degree days 482 505  
Growing Degree Days 13 (Base 50)    
Moisture  
Dew Point 51 °F    
Average Humidity 66    
Maximum Humidity 83    
Minimum Humidity 47    
Precipitation  
Precipitation 0.00 in 0.14 in 4.71 in (1966)
Month to date precipitation 0.95 3.44  
Year to date precipitation 21.82 21.99  
Sea Level Pressure  
Sea Level Pressure 29.89 in    
Wind  
Wind Speed 11 mph (NW)    
Max Wind Speed 20 mph    
Max Gust Speed 24 mph    
Visibility 10 miles    
Events      
T = Trace of Precipitation, MM = Missing Value Source: NWS Daily Summary

Daily Weather History Graph

Daily Weather History Graph

Search for Another Location

Airport or City:

Trip Planner

Search our weather history database for the weather conditions in past years. The results will help you decide how hot, cold, wet, or windy it might be!

Date:

Astronomy

Jul. 27, 2013 Rise Set
Actual Time 5:40 AM CDT 8:14 PM CDT
Civil Twilight 5:08 AM CDT 8:45 PM CDT
Nautical Twilight 4:28 AM CDT 9:25 PM CDT
Astronomical Twilight 3:43 AM CDT 10:10 PM CDT
Moon 10:54 PM CDT (7/27) 11:26 AM CDT (7/27)
Length of Visible Light 15h 37m
Length of Day
14h 33m
Waning Gibbous, 70% of the Moon is Illuminated
Jul 27
Waning Gibbous
Jul 29
Last Quarter
Aug 6
New
Aug 14
First Quarter
Aug 20
Full

Hourly Weather History & Observations

Time (CDT) Temp. Dew Point Humidity Pressure Visibility Wind Dir Wind Speed Gust Speed Precip Events Conditions
12:51 AM 66.0 °F 57.0 °F 73% 29.86 in 10.0 mi WNW 8.1 mph - N/A   Overcast
1:51 AM 63.0 °F 57.0 °F 81% 29.86 in 10.0 mi WNW 5.8 mph - N/A   Partly Cloudy
2:51 AM 62.1 °F 55.9 °F 80% 29.86 in 10.0 mi WNW 5.8 mph - N/A   Partly Cloudy
3:51 AM 62.1 °F 55.9 °F 80% 29.85 in 10.0 mi WNW 6.9 mph - N/A   Mostly Cloudy
4:51 AM 61.0 °F 55.0 °F 81% 29.87 in 10.0 mi NW 6.9 mph - N/A   Mostly Cloudy
5:45 AM 62.6 °F 55.4 °F 77% 29.90 in 10.0 mi NNW 12.7 mph - N/A   Overcast
5:51 AM 61.0 °F 55.9 °F 83% 29.89 in 10.0 mi NNW 10.4 mph - N/A   Overcast
6:51 AM 61.0 °F 55.0 °F 81% 29.89 in 10.0 mi NNW 12.7 mph - N/A   Mostly Cloudy
7:20 AM 62.6 °F 55.4 °F 77% 29.91 in 10.0 mi NNW 10.4 mph - N/A   Mostly Cloudy
7:51 AM 63.0 °F 54.0 °F 72% 29.88 in 10.0 mi NNW 12.7 mph - N/A   Mostly Cloudy
8:43 AM 62.6 °F 55.4 °F 77% 29.90 in 10.0 mi North 8.1 mph - N/A   Mostly Cloudy
8:51 AM 62.1 °F 55.0 °F 78% 29.89 in 10.0 mi North 8.1 mph - N/A   Mostly Cloudy
9:51 AM 60.1 °F 53.1 °F 78% 29.90 in 10.0 mi NW 12.7 mph - N/A   Overcast
10:14 AM 60.8 °F 53.6 °F 77% 29.90 in 10.0 mi NW 9.2 mph - N/A   Overcast
10:51 AM 64.0 °F 52.0 °F 65% 29.89 in 10.0 mi NW 10.4 mph - N/A   Mostly Cloudy
11:51 AM 64.9 °F 48.9 °F 56% 29.89 in 10.0 mi WNW 15.0 mph 19.6 mph N/A   Mostly Cloudy
12:08 PM 66.2 °F 48.2 °F 52% 29.90 in 10.0 mi NW 12.7 mph 17.3 mph N/A   Mostly Cloudy
12:51 PM 64.9 °F 46.9 °F 52% 29.88 in 10.0 mi WNW 16.1 mph 23.0 mph N/A   Mostly Cloudy
1:51 PM 64.0 °F 46.9 °F 54% 29.90 in 10.0 mi WNW 17.3 mph 23.0 mph N/A   Overcast
2:51 PM 63.0 °F 46.0 °F 54% 29.90 in 10.0 mi WNW 16.1 mph 20.7 mph N/A   Overcast
3:51 PM 62.1 °F 46.9 °F 58% 29.91 in 10.0 mi WNW 15.0 mph 20.7 mph N/A   Overcast
4:51 PM 64.0 °F 45.0 °F 50% 29.90 in 10.0 mi WNW 16.1 mph 21.9 mph N/A   Mostly Cloudy
5:51 PM 63.0 °F 43.0 °F 48% 29.91 in 10.0 mi NW 17.3 mph - N/A   Overcast
6:51 PM 63.0 °F 43.0 °F 48% 29.91 in 10.0 mi WNW 11.5 mph - N/A   Mostly Cloudy
7:51 PM 62.1 °F 44.1 °F 52% 29.90 in 10.0 mi West 5.8 mph - N/A   Scattered Clouds
8:51 PM 60.1 °F 44.1 °F 55% 29.91 in 10.0 mi West 8.1 mph - N/A   Mostly Cloudy
9:51 PM 60.1 °F 45.0 °F 57% 29.91 in 10.0 mi WSW 8.1 mph - N/A   Mostly Cloudy
10:51 PM 60.1 °F 46.0 °F 60% 29.90 in 10.0 mi SW 9.2 mph - N/A   Overcast
11:51 PM 60.1 °F 45.0 °F 57% 29.89 in 10.0 mi West 11.5 mph 19.6 mph N/A   Overcast